Weather History for KAND - March, 2013

Change the Weather History Date:

Wednesday, March 13, 2013

  Actual Average Record
Temperature  
Mean Temperature 45 °F -  
Max Temperature 57 °F 64 °F 83 °F (1990)
Min Temperature 35 °F 43 °F 21 °F (1998)
Degree Days  
Heating Degree Days 20    
Moisture  
Dew Point 26 °F    
Average Humidity 50    
Maximum Humidity 86    
Minimum Humidity 26    
Precipitation  
Precipitation 0.00 in - - ()
Sea Level Pressure  
Sea Level Pressure 30.10 in    
Wind  
Wind Speed 9 mph (West)    
Max Wind Speed 21 mph    
Max Gust Speed 31 mph    
Visibility 10 miles    
Events      
Averages and records for this station are not official NWS values.
T = Trace of Precipitation, MM = Missing Value Source: NWS Daily Summary

Daily Weather History Graph

Daily Weather History Graph

Search for Another Location

Airport or City:

Trip Planner

Search our weather history database for the weather conditions in past years. The results will help you decide how hot, cold, wet, or windy it might be!

Date:

Astronomy

Mar. 13, 2013 Rise Set
Actual Time 7:43 AM EDT 7:37 PM EDT
Civil Twilight 7:18 AM EDT 8:02 PM EDT
Nautical Twilight 6:49 AM EDT 8:31 PM EDT
Astronomical Twilight 6:20 AM EDT 9:00 PM EDT
Moon 8:29 AM EDT (3/13) 9:44 PM EDT (3/13)
Length of Visible Light 12h 43m
Length of Day
11h 53m
Waxing Crescent, 4% of the Moon is Illuminated
Mar 13
Waxing Crescent
Mar 19
First Quarter
Mar 27
Full
Apr 3
Last Quarter
Apr 10
New

Hourly Weather History & Observations

Time (EDT) Temp. Windchill Dew Point Humidity Pressure Visibility Wind Dir Wind Speed Gust Speed Precip Events Conditions
12:56 AM 46.9 °F - 30.9 °F 54% 30.04 in 10.0 mi West 6.9 mph - N/A   Clear
1:56 AM 45.0 °F 42.6 °F 32.0 °F 60% 30.05 in 10.0 mi West 4.6 mph - N/A   Clear
2:56 AM 44.1 °F 41.5 °F 32.0 °F 63% 30.06 in 10.0 mi West 4.6 mph - N/A   Clear
3:56 AM 43.0 °F 39.5 °F 32.0 °F 65% 30.06 in 10.0 mi WNW 5.8 mph - N/A   Clear
4:56 AM 42.1 °F 39.2 °F 30.9 °F 65% 30.06 in 10.0 mi West 4.6 mph - N/A   Clear
5:56 AM 37.9 °F - 32.0 °F 79% 30.07 in 10.0 mi Calm Calm - N/A   Clear
6:56 AM 36.0 °F - 32.0 °F 86% 30.08 in 10.0 mi Calm Calm - N/A   Clear
7:56 AM 35.1 °F - 30.9 °F 85% 30.11 in 10.0 mi Calm Calm - N/A   Clear
8:56 AM 39.9 °F 35.8 °F 34.0 °F 79% 30.12 in 10.0 mi SW 5.8 mph - N/A   Clear
9:56 AM 48.0 °F - 28.9 °F 48% 30.12 in 10.0 mi West 12.7 mph - N/A   Clear
10:56 AM 51.1 °F - 28.9 °F 43% 30.12 in 10.0 mi West 13.8 mph 19.6 mph N/A   Clear
11:56 AM 53.1 °F - 27.0 °F 37% 30.11 in 10.0 mi West 16.1 mph 21.9 mph N/A   Clear
12:56 PM 54.0 °F - 25.0 °F 33% 30.09 in 10.0 mi WSW 20.7 mph 26.5 mph N/A   Clear
1:56 PM 55.0 °F - 23.0 °F 29% 30.07 in 10.0 mi WNW 15.0 mph 31.1 mph N/A   Clear
2:56 PM 55.9 °F - 21.0 °F 26% 30.05 in 10.0 mi WNW 19.6 mph 29.9 mph N/A   Clear
4:56 PM 55.9 °F - 21.9 °F 27% 30.05 in 10.0 mi WNW 16.1 mph 26.5 mph N/A   Clear
5:56 PM 54.0 °F - 21.0 °F 28% 30.07 in 10.0 mi WNW 18.4 mph 26.5 mph N/A   Clear
6:56 PM 50.0 °F - 19.0 °F 29% 30.09 in 10.0 mi WNW 17.3 mph 28.8 mph N/A   Clear
7:56 PM 46.9 °F - 19.9 °F 34% 30.14 in 10.0 mi WNW 18.4 mph 24.2 mph N/A   Clear
8:56 PM 44.1 °F 37.1 °F 19.9 °F 38% 30.15 in 10.0 mi NW 15.0 mph - N/A   Clear
9:56 PM 42.1 °F 36.6 °F 19.9 °F 41% 30.17 in 10.0 mi NW 9.2 mph - N/A   Clear
10:56 PM 39.9 °F 33.4 °F 21.0 °F 47% 30.18 in 10.0 mi West 10.4 mph - N/A   Clear
11:56 PM 39.0 °F 31.8 °F 21.0 °F 49% 30.19 in 10.0 mi WNW 11.5 mph - N/A   Clear